Weather History for Valentine, NE

Change the Weather History Date:

Monday, January 20, 2014

  Actual Average Record
Temperature  
Mean Temperature 23 °F 24 °F  
Max Temperature 41 °F 37 °F 64 °F (1944)
Min Temperature 4 °F 11 °F -24 °F (1962)
Degree Days  
Heating Degree Days 42 41  
Month to date heating degree days 747 833  
Since 1 July heating degree days 3739 3728  
Cooling Degree Days 0 0  
Month to date cooling degree days 0 0  
Year to date cooling degree days 0 0  
Moisture  
Dew Point 13 °F    
Average Humidity 62    
Maximum Humidity 83    
Minimum Humidity 40    
Precipitation  
Precipitation T in 0.00 in 0.49 in (1973)
Month to date precipitation 0.03 0.16  
Year to date precipitation 0.03 0.16  
Snow  
Snow T in 0.10 in 6.60 in (1973)
Month to date snowfall 0.5 2.5  
Since 1 July snowfall 19.5 15.2  
Snow Depth 0.00 in    
Sea Level Pressure  
Sea Level Pressure 30.27 in    
Wind  
Wind Speed 18 mph (NW)    
Max Wind Speed 44 mph    
Max Gust Speed 58 mph    
Visibility 10 miles    
Events Snow    
T = Trace of Precipitation, MM = Missing Value Source: NWS Daily Summary

Daily Weather History Graph

Daily Weather History Graph

Search for Another Location

Airport:

Trip Planner

Search our weather history database for the weather conditions in past years. The results will help you decide how hot, cold, wet, or windy it might be!

Date:

Astronomy

Jan. 20, 2014 Rise Set
Actual Time 8:07 AM CST 5:39 PM CST
Civil Twilight 7:36 AM CST 6:10 PM CST
Nautical Twilight 7:01 AM CST 6:45 PM CST
Astronomical Twilight 6:28 AM CST 7:19 PM CST
Moon 10:24 PM CST (1/20) 10:00 AM CST (1/20)
Length of Visible Light 10h 34m
Length of Day
9h 32m
Waning Gibbous, 82% of the Moon is Illuminated
Jan 20
Waning Gibbous
Jan 23
Last Quarter
Jan 30
New
Feb 6
First Quarter
Feb 14
Full

Hourly Weather History & Observations

Time (CST) Temp. Windchill Dew Point Humidity Pressure Visibility Wind Dir Wind Speed Gust Speed Precip Events Conditions
12:52 AM 30.9 °F 24.3 °F 21.9 °F 69% 29.94 in 10.0 mi WSW 6.9 mph - N/A   Clear
1:52 AM 33.1 °F 24.9 °F 21.9 °F 64% 29.94 in 10.0 mi NW 10.4 mph - N/A   Clear
2:52 AM 33.1 °F 26.1 °F 21.9 °F 64% 29.98 in 10.0 mi NW 8.1 mph - N/A   Mostly Cloudy
3:52 AM 39.0 °F 31.0 °F 19.0 °F 45% 30.00 in 10.0 mi NNW 13.8 mph 20.7 mph N/A   Overcast
4:52 AM 34.0 °F 26.0 °F 21.9 °F 61% 30.03 in 10.0 mi WNW 10.4 mph - N/A   Clear
5:52 AM 33.1 °F 24.4 °F 21.0 °F 61% 30.07 in 10.0 mi West 11.5 mph - N/A   Clear
6:52 AM 32.0 °F 25.6 °F 21.0 °F 64% 30.12 in 10.0 mi WNW 6.9 mph - N/A   Clear
7:52 AM 33.1 °F 22.6 °F 21.0 °F 61% 30.13 in 10.0 mi NW 16.1 mph 25.3 mph N/A   Clear
8:52 AM 37.0 °F 25.6 °F 19.0 °F 48% 30.14 in 10.0 mi NW 24.2 mph 40.3 mph N/A   Overcast
9:52 AM 37.9 °F 25.5 °F 19.0 °F 47% 30.17 in 10.0 mi NW 31.1 mph 46.0 mph N/A   Overcast
10:52 AM 37.9 °F 25.9 °F 18.0 °F 45% 30.19 in 10.0 mi NW 28.8 mph 43.7 mph N/A   Overcast
11:52 AM 39.9 °F 27.6 °F 18.0 °F 41% 30.18 in 10.0 mi NW 34.5 mph 52.9 mph N/A   Mostly Cloudy
12:37 PM 32.0 °F 17.4 °F 24.8 °F 75% 30.16 in 2.0 mi NNW 31.1 mph 43.7 mph 0.00 in Snow Light Snow
12:52 PM 32.0 °F 17.9 °F 23.0 °F 69% 30.25 in 8.0 mi NNW 28.8 mph 42.6 mph 0.00 in Snow Light Snow
1:52 PM 30.0 °F 14.2 °F 14.0 °F 51% 30.28 in 10.0 mi NNW 33.4 mph 47.2 mph 0.00 in   Overcast
2:52 PM 25.0 °F 7.1 °F 9.0 °F 51% 30.34 in 10.0 mi NNW 34.5 mph 46.0 mph N/A   Mostly Cloudy
3:52 PM 23.0 °F 6.9 °F 8.1 °F 53% 30.40 in 10.0 mi North 24.2 mph 33.4 mph N/A   Clear
4:52 PM 18.0 °F 0.6 °F 6.1 °F 60% 30.43 in 10.0 mi North 23.0 mph 28.8 mph N/A   Clear
5:52 PM 14.0 °F -2.0 °F 3.9 °F 64% 30.48 in 10.0 mi North 16.1 mph 24.2 mph N/A   Clear
6:52 PM 12.0 °F -3.4 °F 3.0 °F 67% 30.52 in 10.0 mi NNE 13.8 mph 18.4 mph N/A   Mostly Cloudy
7:52 PM 9.0 °F -5.1 °F 1.0 °F 70% 30.55 in 10.0 mi NNE 10.4 mph - N/A   Clear
8:52 PM 7.0 °F -4.5 °F -0.0 °F 73% 30.56 in 10.0 mi North 6.9 mph - N/A   Clear
9:52 PM 6.1 °F -2.8 °F -0.0 °F 76% 30.56 in 10.0 mi North 4.6 mph - N/A   Clear
10:52 PM 5.0 °F - -0.9 °F 76% 30.56 in 10.0 mi Calm Calm - N/A   Clear
11:52 PM 3.9 °F - -0.9 °F 80% 30.56 in 10.0 mi Calm Calm - N/A   Clear